PRAETORIAN SDA_621

Last updated on Wed Aug 19 2026 00:03:42 GMT+0000 (Coordinated Universal Time)

1 65584U 25203V 26230.19730888 .00000028 00000+0 14841-4 0 9998 2 65584 81.3042 313.3336 0007669 26.9150 333.2403 13.83807465 47274
UTC large
Height (km)
Speed (km/s)
/
Latitude / Longitude
Inclination (degrees)
Orbital Period (minutes)
Azimuth
Elevation
Range (km)
Doppler Factor

Next 0 passes for location: London (51.5072 / 0.1276)

No passes found over London.
PRAETORIAN SDA_621